This is the latest recevied weather packets stored in our database for station/object SQ5DCP-1. If no packets are shown the sender has not sent any weather packets the latest 1 day(s).
| Time | Temp. | Humidity | Pressure | Rain* | Wind** | Luminosity | Snow |
|---|---|---|---|---|---|---|---|
| 1777976726 | 26.67° C | 27% | 1009.9 hPa | 0 mm | 2.24 m/s, 228° | - | - |
| 1777976460 | 26.11° C | 28% | 1009.9 hPa | 0 mm | 2.24 m/s, 229° | - | - |
| 1777976425 | 26.11° C | 28% | 1009.9 hPa | 0 mm | 2.24 m/s, 229° | - | - |
| 1777976122 | 26.11° C | 28% | 1010.1 hPa | 0 mm | 1.79 m/s, 240° | - | - |
| 1777975821 | 26.11° C | 27% | 1010.1 hPa | 0 mm | 2.68 m/s, 205° | - | - |
| 1777975518 | 26.67° C | 27% | 1010 hPa | 0 mm | 2.68 m/s, 220° | - | - |
| 1777975308 | 26.67° C | 28% | 1010.2 hPa | 0 mm | 2.68 m/s, 188° | - | - |
| 1777975216 | 26.67° C | 28% | 1010.2 hPa | 0 mm | 2.68 m/s, 188° | - | - |
| 1777974935 | 26.11° C | 28% | 1010.3 hPa | 0 mm | 2.24 m/s, 185° | - | - |
| 1777974633 | 26.11° C | 27% | 1010.3 hPa | 0 mm | 3.58 m/s, 193° | - | - |
| 1777974331 | 26.11° C | 28% | 1010.4 hPa | 0 mm | 2.68 m/s, 200° | - | - |
| 1777974029 | 26.11° C | 29% | 1010.3 hPa | 0 mm | 3.13 m/s, 180° | - | - |
| 1777973728 | 26.11° C | 28% | 1010.4 hPa | 0 mm | 3.58 m/s, 177° | - | - |
| 1777973426 | 26.11° C | 29% | 1010.4 hPa | 0 mm | 3.13 m/s, 183° | - | - |
| 1777973124 | 26.11° C | 30% | 1010.4 hPa | 0 mm | 2.68 m/s, 227° | - | - |
| 1777972822 | 25.56° C | 32% | 1010.4 hPa | 0 mm | 2.24 m/s, 244° | - | - |
| 1777972520 | 25.56° C | 32% | 1010.5 hPa | 0 mm | 2.68 m/s, 186° | - | - |
| 1777972219 | 25.56° C | 31% | 1010.5 hPa | 0 mm | 2.24 m/s, 204° | - | - |
| 1777971917 | 25.56° C | 32% | 1010.6 hPa | 0 mm | 2.24 m/s, 191° | - | - |
| 1777971635 | 25.56° C | 32% | 1010.5 hPa | 0 mm | 2.68 m/s, 212° | - | - |
| 1777971333 | 25° C | 33% | 1010.6 hPa | 0 mm | 2.24 m/s, 228° | - | - |
| 1777971031 | 25° C | 33% | 1010.7 hPa | 0 mm | 1.79 m/s, 221° | - | - |
| 1777970730 | 24.44° C | 32% | 1010.7 hPa | 0 mm | 2.24 m/s, 251° | - | - |
| 1777970427 | 24.44° C | 32% | 1010.8 hPa | 0 mm | 1.79 m/s, 260° | - | - |
| 1777970126 | 24.44° C | 32% | 1010.9 hPa | 0 mm | 2.24 m/s, 234° | - | - |
* Rain latest hour (hover to see other rain measurements)
** Current wind speed in m/s (hover to see current wind gust speed)